Main page
METAR-TAF:

METAR-TAF

Airports :

Madison Municipal Airport

Madison, South Dakota, United States

latitude: 44-00-59N, longitude: 097-05-08W, elevation: 1719 ft

Current weather observation

The report was made 25 minutes ago, at 15:55 UTC
Wind 20 mph from the North/Northwest with gusts up to 29 mph
Temperature 70°F
Humidity 40%
Pressure 30.08 in. Hg
Visibility: 10 miles
Clear sky

METAR: KMDS 281555Z AUTO 34017G25KT 10SM CLR 21/07 A3008 RMK AO2

Time: 10:20 (16:20 UTC)


TAF: missing

Weather observations and forecasts of more than 4000 airports (METAR and TAF reports).

The available stations are represented by yellow and red dots on the map.

Hover mouse over dot to see the name of the station.

Then click to see weather observations and forecasts.

To change the map : click on the green buttons with a black cross to zoom in, on the green button with a dash to zoom out, or on the green arrows for adjacent maps.


METAR-TAF: